Location: Newark
(48.1500°N, 2.9667°W)
Time: 00:36:32
(UTC+00:00)

A-11 Canister half - Pass Details

Date: 31 January 2020
Orbit: 1517 x 1683 km, 47.2° (Epoch: 26 February)

Event Time Altitude Azimuth Distance (km) Brightness Sun altitude
Exits shadow 04:52:07 37° 215° (SW) 2,198 9.5 -28.4°
Drops below altitude 10° 04:59:57 10° 157° (SSE) 3,695 11.2 -27.1°
Sets 05:03:17 0° 149° (SSE) 4,692 11.9 -26.5°
